Regional Weather Roundup
Issued by NWS

Home | Current Version | Previous Version | Text Only | Print | Product List | Glossary Off
Versions: 1 2 3 4 5 6 7 8 9 10 11 12 13 14 15 16 17 18 19 20 21 22 23 24 25 26 27 28 29 30 31 32 33 34 35 36 37 38 39 40 41 42 43 44 45 46 47 48 49 50

000
ASUS43 KMKX 202000
RWRWI

WISCONSIN REGIONAL WEATHER ROUNDUP
NATIONAL WEATHER SERVICE MILWAUKEE/SULLIVAN WI
300 PM CDT WED AUG 20 2014

NOTE: "FAIR" INDICATES FEW OR NO CLOUDS BELOW 12,000 FEET WITH NO
SIGNIFICANT WEATHER AND/OR OBSTRUCTIONS TO VISIBILITY.

WIZ001-002-006>008-014>016-023>028-202100-
NORTHWEST WISCONSIN

CITY           SKY/WX    TMP DP  RH WIND       PRES   REMARKS
SUPERIOR ARPT  MOSUNNY   73  60  65 E6        29.90R
ASHLAND        CLOUDY    70  62  76 N7        29.91R
HAYWARD        CLOUDY    70  60  70 CALM      29.92R
SIREN          PTSUNNY   74  60  60 CALM      29.90S
RICE LAKE      CLOUDY    72  60  64 CALM      29.91F
LADYSMITH      CLOUDY    70  60  69 CALM      29.93R
EAU CLAIRE     MOSUNNY   75  61  61 CALM      29.88S
MENOMONIE      PTCLDY    77  61  57 E3        29.88F
NEW RICHMOND   MOSUNNY   77  63  63 SE5       29.89F
OSCEOLA        PTSUNNY   77  63  62 SE3       29.91F
$$

WIZ003>005-009-010-017-018-202100-
NORTH CENTRAL WISCONSIN

CITY           SKY/WX    TMP DP  RH WIND       PRES   REMARKS
WOODRUFF       CLOUDY    72  63  72 CALM      29.91S
RHINELANDER    CLOUDY    68  58  70 VRB3      29.92S
EAGLE RIVER    CLOUDY    68  57  68 CALM      29.91S
LAND O LAKES   CLOUDY    67  59  74 N5        29.92F
PHILLIPS       CLOUDY    69  59  71 CALM      29.91S
TOMAHAWK       CLOUDY    68  58  72 CALM      29.91F
MEDFORD        CLOUDY    67  60  76 CALM      29.92S
MERRILL        CLOUDY    69  61  75 CALM      29.91R
$$

WIZ029-030-035-036-043>047-202100-
CENTRAL WISCONSIN

CITY           SKY/WX    TMP DP  RH WIND       PRES   REMARKS
WAUSAU         CLOUDY    69  61  75 SW5       29.90R
MOSINEE        CLOUDY    68  63  83 VRB5      29.92S
MARSHFIELD     MOSUNNY   75  61  61 CALM      29.90F
STEVENS POINT  PTSUNNY   70  60  71 N5        29.91S
WAUPACA        MOSUNNY   77  63  61 N5        29.90S
WAUTOMA        NOT AVBL
WISC RAPIDS    MOSUNNY   77  62  59 MISG      29.90S
CAMP DOUGLAS   NOT AVBL
$$

WIZ011>013-019>022-031-037>040-048>050-202100-
NORTHEAST WISCONSIN

CITY           SKY/WX    TMP DP  RH WIND       PRES   REMARKS
ANTIGO         CLOUDY    69  60  73 CALM      29.92R
STURGEON BAY   CLOUDY    70  61  73 SW9       29.90F
GREEN BAY      CLOUDY    70  62  76 W5        29.90S
MANITOWOC      NOT AVBL
APPLETON       PTSUNNY   72  61  68 N5        29.90F
CLINTONVILLE   CLOUDY    70  59  68 SW6       29.90S
OSHKOSH        MOSUNNY   74  66  76 E7        29.88F
$$

WIZ032>034-041-042-053>061-202100-
SOUTHWEST WISCONSIN

CITY           SKY/WX    TMP DP  RH WIND       PRES   REMARKS
LA CROSSE      PTSUNNY   85  66  53 NE3       29.85S HX  87
SPARTA         MOSUNNY   82  62  51 W5        29.88R HX  82
VIROQUA        FAIR      80  65  61 SW5       29.89S HX  82
BOSCOBEL       CLOUDY    87  66  49 W6        29.85F HX  89
PRAIRIE DU CHI PTSUNNY   83  63  50 W6        29.84F HX  84
PLATTEVILLE    FAIR      82  67  60 S6        29.88F HX  84
$$

WIZ056-057-062-063-064-067-068-202100-
SOUTH CENTRAL WISCONSIN

CITY           SKY/WX    TMP DP  RH WIND       PRES   REMARKS
BARABOO/DELLS  PTSUNNY   82  60  48 CALM      29.87F HX  82
LONE ROCK      NOT AVBL
WATERTOWN      MOSUNNY   82  67  60 W5        29.87F HX  84
MADISON        PTSUNNY   84  63  49 W5        29.87S HX  85
MIDDLETON      MOCLDY    85  62  46 SW5       29.87F HX  85
MONROE         MOSUNNY   81  64  57 W9        29.89S HX  82
JANESVILLE     MOSUNNY   88  63  42 W12       29.87  HX  88
$$

WIZ051-052-058>065-066-070>072-202100-
SOUTHEAST WISCONSIN

CITY           SKY/WX    TMP DP  RH WIND       PRES   REMARKS
MILWAUKEE      PTSUNNY   76  65  68 SE14      29.88S
WAUKESHA       PTSUNNY   79  63  57 W5        29.89F HX  80
MILWAUKEE/TIMM NOT AVBL
RACINE         PTSUNNY   78  67  68 SE9       29.89F HX  80
BURLINGTON     MOSUNNY   81  65  59 NW9       29.88F HX  82
KENOSHA        MOSUNNY   83  67  58 NW9       29.88F HX  85
FOND DU LAC    PTSUNNY   76  65  68 NE8       29.88F
SHEBOYGAN      CLOUDY    73  64  73 E8        29.89S
WEST BEND      CLOUDY    77  61  57 NW6       29.88F
JUNEAU         CLOUDY    78  40  26 W3        29.90S
$$

LSZ147-162-202100-
LAKE SUPERIOR

STATION/POSITION TIME  TEMP    WIND        PRES    WAVE
                       AIR SEA DIR/SP/G            HT/PER
                 (UTC) (F)     (DEG/KT/KT) (MB)    (FT/S)
W MID LAKE BUOY  1850   60 59     CALM     1012.6R   1
DEVILS ISLAND    1900   68      60/  2/  2 1012.6S
PORT WING        1900   66     350/  4/  7 1012.5S
SAXON HARBOR     1900   68      50/  5/  6 1012.9S
$$

LMZ867-665-643>646-202100-
LAKE MICHIGAN

STATION/POSITION TIME  TEMP    WIND        PRES    WAVE
                       AIR SEA DIR/SP/G            HT/PER
                 (UTC) (F)     (DEG/KT/KT) (MB)    (FT/S)
N MID LAKE BUOY  1850   62 62  290/  6/  6 1011.5R   1/ 3
NORTHPORT PIER   1900   65     320/  7/ 10 1012.2R
SISTER BAY       1911   70     360/  5/  6   N/A
KEWAUNEE LAKESHO 1900   66     150/  7/  7 1011.8R
SHEBOYGAN LAKESH 1900   66 67  130/  8/  8 1012.5F
ATWATER BUOY     1900   69     130/ 10/ 12 1013.1F
MILWAUKEE LAKESH 1900   69     110/ 10/ 12   N/A
S MID LAKE BUOY  1850   69 69  140/  6/  6 1012.9F   0
KENOSHA   LAKESH 1900   74     100/ 11/ 13 1011.5F
$$

TC  - TEMPERATURE IN CELSIUS
VSB - VISIBILITY IN STATUTE MILES
WCI - WIND CHILL INDEX
HX  - HEAT INDEX



USA.gov is the U.S. government's official web portal to all federal, state and local government web resources and services.